Regional Weather Roundup
Issued by NWS

Home | Current Version | Previous Version | Graphics & Text | Print | Product List | Glossary On
Versions: 1 2 3 4 5 6 7 8 9 10 11 12 13 14 15 16 17 18 19 20 21 22 23 24 25 26 27 28 29 30 31 32 33 34 35 36 37 38 39 40 41 42 43 44 45 46 47 48 49 50
000
ASUS43 KLMK 020802
RWRKY
KENTUCKY REGIONAL WEATHER ROUNDUP
NATIONAL WEATHER SERVICE LOUISVILLE KY
400 AM EDT WED SEP 02 2015

NOTE "FAIR" INDICATES FEW OR NO CLOUDS BELOW 12,000 FEET
WITH NO SIGNIFICANT WEATHER AND/OR OBSTRUCTIONS TO VISIBILITY.

KYZ001>023-026-027-061>063-070>075-020900-
WESTERN AND SOUTH CENTRAL KENTUCKY

CITY           SKY/WX    TMP DP  RH WIND       PRES   REMARKS
PADUCAH        CLOUDY    70  67  90 CALM      30.07S
HENDERSON      CLEAR     66  63  88 CALM      30.07F
OWENSBORO      PTCLDY    70  67  90 CALM      30.10S
HOPKINSVILLE   CLOUDY    73  68  86 SE3       30.08S
BOWLING GREEN  CLEAR     70  67  90 CALM      30.10S
GLASGOW        MOCLDY    66  66 100 CALM      30.11S FOG
$$

KYZ024-025-028>034-038-045-046-053-020900-
NORTH CENTRAL KENTUCKY

CITY           SKY/WX    TMP DP  RH WIND       PRES   REMARKS
LOUISVILLE/SDF CLEAR     73  68  84 SE5       30.09S
LOUISVILLE/LOU CLEAR     71  69  93 CALM      30.11R FOG
FORT KNOX      CLEAR     66  64  94 CALM      30.09S FOG
$$

KYZ035>037-039>044-047>052-055>060-089>105-020900-
NORTHEAST KENTUCKY

CITY           SKY/WX    TMP DP  RH WIND       PRES   REMARKS
LEXINGTON      CLEAR     69  64  84 CALM      30.12F
COVINGTON      CLEAR     69  66  90 CALM      30.11S FOG
FRANKFORT      NOT AVBL
$$

KYZ054-064>069-076>088-106>120-020900-
SOUTHEAST KENTUCKY

CITY           SKY/WX    TMP DP  RH WIND       PRES   REMARKS
JACKSON        CLEAR     69  66  90 CALM      30.15R
LONDON         CLEAR     67  63  87 CALM      30.14S FOG
SOMERSET       NOT AVBL
MIDDLESBORO    CLOUDY    66  66 100 CALM      30.16S FOG
MONTICELLO     SUNNY     64  64 100 CALM      30.16S FOG
$$




USA.gov is the U.S. government's official web portal to all federal, state and local government web resources and services.